Date,TemperatureHighF,TemperatureAvgF,TemperatureLowF,DewpointHighF,DewpointAvgF,DewpointLowF,HumidityHigh,HumidityAvg,HumidityLow,PressureMaxIn,PressureMinIn,WindSpeedMaxMPH,WindSpeedAvgMPH,GustSpeedMaxMPH,PrecipitationSumIn
2012-1-1,67.3,53.2,36.9,42.8,30.8,21.3,73,44,24,30.65,30.21,18,4,18,0.00
2012-1-2,67.8,45.7,32.2,35.4,26.5,3.3,89,54,10,30.77,30.59,11,2,11,0.00
2012-1-3,68.9,46.6,27.3,36.8,25.3,-6.5,94,52,8,30.65,30.30,17,3,17,0.00
2012-1-4,75.9,53.2,36.9,45.6,36.3,28.4,95,57,26,30.39,30.21,8,2,8,0.00
2012-1-5,76.7,54.3,38.0,53.1,42.0,34.4,92,66,36,30.39,30.12,6,1,115,0.00
2012-1-6,78.5,62.3,49.1,57.8,51.1,46.5,97,71,36,30.15,29.91,24,3,24,0.00
2012-1-7,73.8,57.3,45.5,56.1,43.0,33.0,98,64,32,30.12,29.97,10,2,10,0.00
2012-1-8,67.3,55.2,41.9,53.4,46.1,38.6,90,72,58,30.12,30.00,8,1,8,0.00
2012-1-9,55.0,47.8,40.3,51.0,46.2,38.4,98,94,83,30.18,30.00,15,4,15,0.87
2012-1-10,61.7,46.9,36.1,40.5,35.3,27.3,96,67,38,30.12,29.91,20,4,20,0.00
2012-1-11,82.2,47.0,30.6,46.2,32.9,-1.3,97,68,4,30.06,29.68,20,2,20,0.87
2012-1-12,51.3,40.2,28.0,32.8,10.4,-12.1,66,36,8,30.36,30.03,20,5,20,0.87
2012-1-13,64.9,42.7,27.0,30.1,19.1,-10.6,77,45,5,30.39,30.24,9,1,9,0.87
2012-1-14,73.0,46.6,25.2,37.2,18.3,-14.5,90,46,3,30.44,30.27,57,2,57,0.87
2012-1-15,64.9,51.2,31.5,58.9,41.1,19.4,90,69,49,30.36,30.18,18,4,18,0.87
2012-1-16,71.2,64.9,60.3,61.8,60.2,58.2,97,85,70,30.21,29.97,19,4,19,0.87
2012-1-17,72.5,60.2,38.1,64.2,44.8,21.0,97,61,33,30.39,29.97,16,4,16,0.87
2012-1-18,75.0,48.4,28.8,39.5,28.7,18.7,75,49,25,30.39,30.03,13,1,13,0.87
2012-1-19,88.5,61.0,38.3,51.5,41.9,29.8,95,56,13,30.06,29.85,15,2,15,0.87
2012-1-20,86.4,66.6,52.0,61.4,56.1,43.5,98,72,41,29.91,29.76,16,3,16,0.87
2012-1-21,66.4,51.7,40.1,54.0,37.9,29.1,98,61,38,30.15,29.88,13,3,13,0.87
2012-1-22,87.3,61.9,44.4,64.4,40.5,-14.5,96,57,3,30.00,29.74,15,3,16,0.00
2012-1-23,74.7,54.3,38.5,41.9,34.6,25.6,80,50,29,30.21,30.00,8,1,8,0.87
2012-1-24,66.0,53.7,40.6,65.3,48.9,33.2,98,84,66,30.09,29.82,10,2,10,0.87
2012-1-25,67.3,55.8,47.7,66.1,51.7,43.1,98,86,71,30.00,29.74,26,4,26,0.87
2012-1-26,73.2,53.7,40.3,46.8,40.8,33.1,98,67,29,30.15,29.97,12,3,12,0.87
2012-1-27,75.9,48.8,34.7,45.6,38.1,33.0,98,73,32,30.15,29.91,22,3,22,0.00
2012-1-28,63.9,49.7,34.0,37.8,26.5,12.5,73,42,16,30.50,30.15,15,4,15,2.28
2012-1-29,69.4,47.5,28.6,37.2,30.6,23.5,92,56,28,30.53,30.33,10,2,10,2.28
2012-1-30,64.9,54.1,38.8,58.5,47.9,31.3,96,80,62,30.36,30.15,21,4,21,0.00
2012-1-31,79.0,65.3,54.3,62.4,57.5,52.9,97,79,45,30.21,30.00,13,3,18,0.00
2012-2-1,88.0,60.8,51.1,63.8,54.3,41.7,98,83,32,30.21,30.06,10,1,10,0.00
2012-2-2,74.1,61.0,46.6,65.3,55.7,0.0,96,84,32,30.18,29.94,13,2,13,2.28
2012-2-3,76.5,69.7,63.9,65.0,63.1,60.2,97,81,60,30.00,29.94,20,4,20,2.28
2012-2-4,65.1,54.9,48.7,64.2,41.4,31.4,97,62,42,30.33,30.00,20,5,23,1.42
2012-2-5,54.5,46.0,38.3,35.9,31.9,28.6,79,58,47,30.41,30.33,18,4,18,0.01
2012-2-6,60.1,47.9,36.0,40.7,34.6,29.6,80,61,43,30.41,30.21,8,1,8,0.00
2012-2-7,72.7,54.0,36.0,44.9,39.5,34.3,96,62,35,30.39,30.18,7,2,7,0.00
2012-2-8,63.5,46.7,36.7,41.8,36.1,33.0,88,68,44,30.53,30.33,10,3,10,0.00
2012-2-9,66.2,50.6,33.6,43.3,37.9,0.0,100,66,42,30.36,30.15,10,3,115,0.00
2012-2-10,68.7,54.7,44.2,50.1,40.8,0.0,96,63,33,30.39,30.09,17,3,17,0.08
2012-2-11,55.2,43.4,32.0,32.7,24.9,17.6,81,52,26,30.53,30.33,13,4,13,0.00
2012-2-12,39.6,37.9,34.3,30.4,25.1,18.6,70,60,50,30.44,30.18,12,2,12,0.04
2012-2-13,73.6,49.1,37.6,53.5,43.0,30.2,98,82,47,30.18,29.85,10,2,10,0.37
2012-2-14,81.9,58.8,38.3,61.0,49.3,37.7,98,76,35,30.00,29.82,19,3,19,0.00
2012-2-15,81.3,66.2,48.7,67.3,53.5,36.7,97,69,30,30.12,29.88,13,2,13,0.00
2012-2-16,67.3,51.6,45.5,45.2,41.1,37.0,83,68,44,30.33,30.09,172,2,172,0.00
2012-2-17,64.2,54.1,48.6,56.2,51.8,45.1,98,92,71,30.18,29.88,9,2,9,1.00
2012-2-18,55.0,52.3,47.3,54.5,50.8,44.8,98,95,84,30.12,29.85,15,3,15,1.50
2012-2-19,69.8,53.2,38.7,47.4,43.5,37.6,98,73,42,30.21,30.03,10,3,10,0.00
2012-2-20,74.5,57.8,46.2,54.4,49.6,44.5,95,77,44,30.18,29.97,17,4,17,0.00
2012-2-21,79.3,60.7,43.3,57.2,49.8,42.5,98,72,40,30.24,29.97,16,3,16,0.00
2012-2-22,92.7,70.3,55.6,61.3,42.4,-17.4,98,55,2,30.00,29.74,14,2,14,0.00
2012-2-23,95.4,71.7,57.6,50.1,33.5,-14.5,71,36,2,29.85,29.56,18,3,18,0.00
2012-2-24,66.0,53.8,37.8,40.2,18.4,-12.5,54,29,4,30.44,29.85,25,6,25,0.00
2012-2-25,69.8,48.6,32.5,37.0,17.5,-14.5,84,43,4,30.47,30.21,18,3,115,0.00
2012-2-26,72.0,54.7,37.4,50.1,40.8,25.8,84,61,42,30.24,30.03,22,5,22,0.00
2012-2-27,75.6,63.2,57.6,61.8,57.4,49.6,95,82,56,30.30,30.15,172,3,172,0.00
2012-2-28,80.2,68.6,61.2,80.2,63.2,59.9,100,84,57,30.18,29.91,30,6,30,4.63
2012-2-29,88.5,69.7,51.1,66.4,40.1,-16.8,96,52,2,30.12,29.97,10,2,11,0.00
2012-3-1,86.9,54.8,45.1,66.5,48.8,0.0,96,81,47,30.00,29.74,20,1,20,0.00
2012-3-2,83.1,69.8,54.1,67.3,50.2,33.5,96,57,19,29.88,29.71,13,3,13,7.02
2012-3-3,70.3,55.4,37.6,37.2,20.4,-14.5,68,33,4,30.24,29.88,16,4,16,7.02
2012-3-4,80.8,55.1,30.9,41.7,17.7,-20.0,95,43,2,30.30,30.12,20,3,20,0.00
2012-3-5,81.1,61.7,39.7,48.2,32.1,-16.5,84,40,2,30.39,30.21,27,4,27,0.00
2012-3-6,77.9,64.2,52.5,57.8,52.0,47.9,91,67,42,30.24,29.97,29,7,31,7.02
2012-3-7,74.1,68.6,64.8,66.8,62.2,57.8,89,80,73,30.03,29.88,27,7,27,0.00
2012-3-8,87.8,64.9,45.3,70.1,57.1,40.5,89,77,46,30.33,29.91,24,6,24,0.00
2012-3-9,45.3,42.4,40.5,41.8,39.2,34.2,97,89,70,30.41,30.27,19,4,19,0.58
2012-3-10,50.2,47.2,42.4,49.6,46.1,40.8,98,96,94,30.39,30.09,6,1,6,0.41
2012-3-11,82.0,60.0,50.2,58.2,52.2,49.6,98,79,41,30.12,29.97,10,2,10,0.13
2012-3-12,92.5,66.1,45.7,63.0,53.9,44.8,98,72,26,30.15,29.97,16,3,16,0.00
2012-3-13,81.1,70.8,61.9,66.9,64.1,60.5,97,81,53,30.18,30.03,15,4,15,0.00
2012-3-14,81.7,70.0,65.8,68.3,64.4,62.7,92,83,57,30.18,30.03,14,4,14,0.00
2012-3-15,87.1,72.3,65.7,68.5,64.2,59.8,92,78,46,30.21,30.03,19,4,19,0.00
2012-3-16,80.1,71.6,65.3,67.8,64.5,60.0,96,79,52,30.18,29.97,18,4,18,0.00
2012-3-17,84.9,72.2,65.3,65.8,63.4,58.4,92,76,46,30.09,29.94,20,5,20,0.00
2012-3-18,76.8,70.7,65.7,66.9,64.5,62.5,90,81,67,30.03,29.85,24,5,24,8.14
2012-3-19,84.0,71.6,57.4,67.0,63.5,53.3,98,77,53,29.91,29.62,36,8,36,2.99
2012-3-20,73.0,57.7,50.4,56.8,49.4,42.9,98,77,42,29.91,29.71,15,2,17,1.28
2012-3-21,76.1,58.3,39.2,50.2,40.4,34.4,94,56,31,29.94,29.85,18,2,18,0.00
2012-3-22,87.4,62.9,42.3,47.6,40.9,11.2,93,52,6,30.06,29.85,32,5,32,12.41
2012-3-23,90.1,62.0,41.7,53.9,47.2,39.5,96,64,29,30.12,29.91,9,1,9,0.00
2012-3-24,57.0,54.9,51.8,52.7,50.8,49.0,95,86,80,30.00,29.97,4,0,6,0.00
2012-3-26,90.9,77.3,63.1,60.6,55.3,51.6,73,49,31,30.12,29.97,17,3,22,0.00
2012-3-27,81.7,68.5,56.1,80.2,59.9,51.3,100,75,56,30.12,29.97,14,2,14,12.41
2012-3-28,76.5,67.7,62.6,68.0,64.0,60.6,97,88,69,30.09,29.94,10,2,10,0.00
2012-3-29,89.1,72.6,61.3,69.7,65.1,60.3,98,80,50,30.00,29.82,9,2,9,0.00
2012-3-30,94.1,75.5,62.4,69.0,63.7,57.2,98,71,35,29.94,29.79,15,3,15,0.00
2012-3-31,102.7,78.1,61.5,68.6,63.2,54.9,98,67,25,29.91,29.79,13,2,16,0.00
2012-4-1,96.6,77.3,62.8,68.2,64.2,58.2,97,69,30,29.88,29.71,20,3,20,0.00
2012-4-2,93.0,77.7,66.6,70.2,64.4,56.8,96,68,32,29.76,29.59,18,4,18,0.00
2012-4-3,91.2,73.3,54.9,70.1,57.7,40.9,95,64,19,29.88,29.68,15,2,15,0.00
2012-4-4,95.0,66.2,47.1,58.3,48.5,41.3,96,60,21,30.00,29.76,11,1,11,0.00
2012-4-5,99.5,72.1,52.7,62.4,54.9,44.1,96,62,19,29.97,29.79,10,1,10,0.00
2012-4-6,92.1,72.4,56.7,62.1,57.2,52.5,87,63,35,30.09,29.91,10,2,10,0.00
2012-4-7,92.3,74.3,63.5,66.8,62.4,55.7,96,70,39,30.24,30.03,14,2,14,0.00
2012-4-8,95.0,74.0,61.3,65.7,60.6,53.3,95,68,32,30.30,30.03,11,2,11,0.00
2012-4-9,91.9,72.2,57.2,65.4,58.3,54.7,97,66,36,30.24,30.09,12,2,14,0.00
2012-4-10,94.3,73.5,58.1,62.0,57.6,53.8,95,62,30,30.18,30.03,13,2,13,12.41
2012-4-11,92.8,72.9,57.9,65.1,59.1,54.5,96,66,33,30.18,29.97,14,2,14,0.00
2012-4-12,86.4,73.1,67.8,70.3,63.7,59.2,89,73,49,30.21,29.91,18,3,18,0.00
2012-4-13,86.2,74.3,68.9,69.7,66.2,64.1,89,77,55,30.00,29.85,19,4,172,0.00
2012-4-14,82.4,75.3,72.3,69.3,67.2,65.5,83,76,61,29.94,29.74,29,6,29,0.00
2012-4-15,89.4,73.0,54.5,69.7,58.9,45.7,91,65,27,30.00,29.68,27,4,27,0.00
2012-4-16,81.3,63.2,48.2,55.7,50.2,43.9,97,67,34,30.21,29.97,13,2,13,0.00
2012-4-17,93.9,69.2,49.8,59.2,48.5,18.0,98,57,10,30.30,30.12,11,2,11,0.00
2012-4-18,95.9,71.0,52.5,62.8,52.0,42.1,93,56,26,30.24,29.97,13,2,13,0.00
2012-4-19,92.3,73.5,56.1,59.1,52.4,47.9,81,51,30,30.06,29.79,20,4,20,0.00
2012-4-20,82.4,69.7,59.7,65.3,55.6,40.5,91,64,32,30.06,29.74,17,4,17,0.09
2012-4-21,90.5,66.3,46.6,48.8,42.7,37.8,87,47,19,30.12,30.00,13,2,13,0.00
2012-4-22,101.5,72.4,46.6,52.8,45.1,-5.0,94,49,2,30.21,30.03,10,2,10,0.00
2012-4-23,91.8,70.9,53.1,45.5,40.1,33.0,57,34,18,30.33,30.06,13,2,13,0.00
2012-4-24,94.6,73.1,51.1,57.8,50.1,39.1,85,48,27,30.12,29.91,20,3,20,0.00
2012-4-25,99.7,80.1,66.0,69.1,62.0,54.8,85,58,30,29.97,29.79,23,5,23,0.00
2012-4-26,102.0,81.4,66.2,69.1,63.5,56.4,88,60,25,29.88,29.79,21,4,21,0.00
2012-4-27,98.6,79.6,67.8,67.6,61.3,56.1,85,57,29,29.88,29.74,18,4,18,0.00
2012-4-28,96.3,79.5,67.6,67.2,62.6,55.6,84,59,33,29.94,29.82,23,6,23,0.00
2012-4-29,93.7,79.5,71.8,67.4,63.7,56.6,85,61,35,30.00,29.85,20,4,20,0.00
2012-4-30,91.2,79.0,72.0,72.0,67.1,62.4,90,69,42,30.03,29.91,15,4,22,0.00
2012-5-1,95.4,77.4,71.6,69.5,66.9,61.4,87,73,38,30.00,29.82,22,4,22,0.00
2012-5-2,92.7,77.4,71.1,68.5,65.6,62.4,84,69,42,29.97,29.85,15,3,15,0.00
2012-5-3,103.1,83.2,68.4,70.6,67.1,62.8,93,63,30,30.03,29.85,18,3,18,0.00
2012-5-4,102.4,84.5,73.4,70.7,67.5,62.1,83,60,33,30.00,29.85,18,4,18,0.00
2012-5-5,104.9,85.0,69.4,72.1,68.5,57.3,91,62,32,30.00,29.79,16,4,16,0.04
2012-5-6,104.7,76.8,68.0,69.5,61.4,53.7,92,62,27,29.97,29.79,26,4,26,0.21
2012-5-7,101.5,79.5,63.5,72.5,67.4,61.0,94,70,36,29.97,29.79,25,3,25,0.75
2012-5-8,71.1,66.2,63.0,67.3,63.8,61.2,95,92,83,30.09,29.94,14,2,14,0.20
2012-5-9,91.8,72.5,61.2,66.7,60.5,56.7,96,70,39,30.12,29.94,11,2,11,0.00
2012-5-10,75.9,67.5,61.0,70.4,62.5,58.4,97,84,73,30.00,29.76,15,2,15,2.46
2012-5-11,91.4,68.4,61.5,68.1,61.7,56.4,98,82,41,30.00,29.82,8,1,8,0.00
2012-5-12,88.3,70.4,59.7,63.3,58.4,53.8,96,69,40,30.21,29.97,11,2,11,0.00
2012-5-13,92.5,72.4,57.2,64.0,56.2,49.4,96,62,32,30.24,30.09,10,2,13,0.00
2012-5-14,93.0,72.0,58.8,64.7,58.7,54.7,96,68,34,30.18,30.00,11,1,11,16.03
2012-5-15,86.0,67.8,58.1,70.0,60.8,52.3,98,81,41,30.18,30.03,10,1,10,1.08
2012-5-16,99.3,73.5,54.1,64.2,55.5,47.1,97,61,23,30.18,29.97,8,1,8,0.00
2012-5-17,99.9,77.3,57.2,65.2,57.1,51.3,96,57,23,30.09,29.91,11,2,11,0.00
2012-5-18,94.6,77.5,62.8,63.5,59.8,56.4,91,58,33,30.00,29.85,19,4,19,0.00
2012-5-19,96.4,79.8,68.9,66.8,63.4,57.0,87,61,34,30.00,29.88,20,5,20,0.00
2012-5-20,98.6,78.9,66.9,69.2,62.3,52.0,92,61,31,30.15,29.97,12,2,12,0.00
2012-5-21,103.5,80.8,62.6,68.1,60.6,54.7,94,56,26,30.21,30.03,10,1,229,0.00
2012-5-22,99.5,80.7,63.5,66.9,60.5,54.9,93,55,29,30.09,29.85,15,2,15,0.00
2012-5-23,97.2,80.9,68.2,70.4,64.8,56.0,88,60,39,29.91,29.65,20,4,20,0.00
2012-5-24,99.1,83.5,73.9,70.9,69.0,67.0,81,64,38,29.79,29.68,19,5,19,0.00
2012-5-25,100.9,83.5,72.5,71.6,68.6,63.5,87,64,36,30.00,29.79,23,5,23,0.00
2012-5-26,99.5,83.4,73.0,72.8,67.6,61.5,90,63,33,30.06,29.91,19,4,19,0.00
2012-5-27,96.8,81.5,69.1,68.9,65.0,60.3,90,61,36,30.00,29.85,16,4,16,0.00
2012-5-28,102.0,83.4,69.1,70.2,66.1,61.2,93,60,34,29.97,29.82,15,3,15,0.00
2012-5-29,105.8,85.7,71.2,71.2,68.3,65.3,90,60,31,29.97,29.82,13,2,13,0.00
2012-5-30,98.1,82.6,71.8,71.9,68.7,63.7,92,65,39,29.94,29.71,29,4,29,0.00
2012-5-31,102.4,83.4,72.1,71.8,63.7,53.4,90,56,24,29.94,29.74,18,3,18,17.65
2012-6-1,101.3,81.3,64.4,63.5,58.7,52.2,87,50,27,30.06,29.85,11,2,11,0.00
2012-6-2,102.0,77.9,70.2,69.8,65.3,58.4,89,68,27,30.00,29.79,15,2,15,17.65
2012-6-3,100.9,83.1,71.4,71.7,68.1,63.0,90,63,33,29.97,29.85,19,3,19,0.00
2012-6-4,101.7,80.5,73.0,72.5,69.3,65.6,88,71,36,29.97,29.79,14,2,14,0.00
2012-6-5,109.0,92.7,70.2,74.1,66.6,60.4,92,47,27,29.91,29.74,10,2,10,0.00
2012-6-6,106.5,86.8,69.4,71.4,64.7,59.4,89,52,27,29.91,29.76,17,2,17,0.00
2012-6-7,91.8,76.3,66.0,74.7,66.8,61.4,95,74,45,30.06,29.85,17,2,17,0.57
2012-6-8,95.9,77.7,67.5,71.2,66.3,62.0,95,71,40,30.03,29.85,10,1,10,0.00
2012-6-9,102.9,82.5,64.8,68.1,64.9,60.8,94,61,30,29.97,29.74,12,2,12,0.00
2012-6-10,103.5,86.6,72.0,72.4,69.1,65.0,89,59,36,29.85,29.76,19,4,19,0.00
2012-6-11,105.8,88.8,75.4,73.2,68.9,61.7,89,56,27,30.00,29.85,18,4,18,0.00
2012-6-12,102.4,84.4,70.0,75.0,69.4,59.8,86,63,35,30.06,29.97,13,2,13,0.00
2012-6-13,103.5,82.3,68.5,74.2,67.3,60.8,91,65,31,30.15,29.85,13,3,13,0.00
2012-6-14,101.3,85.2,74.5,72.0,68.8,62.6,88,61,36,29.97,29.88,172,4,172,0.00
2012-6-15,102.0,86.0,72.1,72.4,67.4,60.2,91,58,31,30.00,29.88,20,3,20,0.00
2012-6-16,105.6,86.8,72.0,74.4,66.9,58.1,93,57,27,30.06,29.91,14,2,14,0.00
2012-6-17,104.5,85.1,70.0,72.2,67.0,60.5,95,59,31,30.09,29.85,13,2,13,0.17
2012-6-18,102.0,83.2,69.4,71.1,66.3,61.1,92,61,34,29.94,29.76,17,3,17,0.00
2012-6-19,101.5,83.9,72.9,72.4,69.3,64.3,91,65,34,29.94,29.82,20,5,20,0.00
2012-6-20,91.6,79.5,71.8,78.7,71.5,67.9,95,78,54,30.00,29.91,20,3,20,0.96
2012-6-21,105.4,84.0,72.0,75.5,67.6,59.4,95,63,30,30.06,29.94,12,2,12,0.00
2012-6-22,108.7,84.4,66.6,71.8,63.0,56.2,93,54,26,30.03,29.88,10,1,10,0.00
2012-6-23,106.5,85.7,68.5,70.2,63.2,49.9,90,53,25,29.97,29.85,9,1,9,0.00
2012-6-24,111.6,87.9,69.3,72.4,64.1,57.8,90,50,24,30.06,29.91,8,1,8,0.00
2012-6-25,113.7,89.9,69.6,71.9,62.9,51.9,88,47,17,30.03,29.82,10,1,10,0.00
2012-6-26,118.2,91.8,68.7,69.9,61.9,55.1,80,44,15,29.88,29.74,8,1,8,0.00
2012-6-27,114.8,93.3,74.8,71.1,64.6,59.0,77,42,23,30.00,29.82,172,2,172,0.00
2012-6-28,107.8,89.9,72.9,67.7,61.7,55.2,72,42,24,30.06,29.97,15,3,15,0.00
2012-6-29,107.2,87.0,74.1,73.5,67.2,61.2,89,55,26,30.09,29.91,24,3,24,0.00
2012-6-30,100.9,84.2,72.3,74.1,68.8,63.6,92,63,37,29.97,29.85,10,3,12,0.00
2012-7-1,94.6,77.9,71.1,73.5,69.4,65.4,91,77,43,30.06,29.91,14,2,14,0.00
2012-7-2,103.6,85.0,73.6,75.1,67.0,57.5,93,60,29,30.12,29.97,19,3,19,0.00
2012-7-3,103.6,85.8,72.5,74.3,67.4,60.6,89,58,30,30.12,29.91,19,3,19,0.00
2012-7-4,104.4,87.5,73.4,74.0,67.1,59.3,90,55,28,30.09,29.91,17,4,17,0.00
2012-7-5,106.3,87.9,74.5,72.8,66.9,57.8,88,55,25,30.09,29.94,20,4,20,0.00
2012-7-6,108.5,88.2,72.1,73.5,65.0,55.1,91,52,24,30.12,29.94,12,2,12,0.00
2012-7-7,109.6,87.3,72.3,74.0,66.8,57.0,87,54,25,30.09,29.97,8,1,8,0.00
2012-7-8,108.1,82.5,73.0,73.3,70.1,62.6,94,70,29,30.06,29.94,15,2,15,0.33
2012-7-9,111.4,81.8,73.2,75.4,70.7,61.0,95,74,27,30.06,29.88,12,2,12,0.04
2012-7-10,101.8,81.8,72.0,74.2,70.7,65.1,95,73,37,30.03,29.85,10,1,10,0.33
2012-7-11,94.3,76.8,72.3,78.0,72.9,70.7,96,89,53,30.00,29.94,12,0,12,0.04
2012-7-12,102.2,83.2,71.8,79.9,71.7,65.1,96,72,36,30.00,29.91,8,1,8,0.09
2012-7-13,107.6,84.4,70.5,75.7,69.9,62.3,95,67,29,30.06,29.91,15,2,15,0.00
2012-7-14,105.3,83.2,70.7,76.2,69.4,62.5,96,68,32,30.09,29.91,10,1,10,0.12
2012-7-15,101.1,78.7,68.2,82.1,69.5,62.4,96,76,36,30.09,29.97,12,2,12,0.17
2012-7-16,102.6,83.4,69.6,74.9,68.1,59.6,95,66,31,30.09,29.91,15,3,15,0.00
2012-7-17,100.2,83.5,72.0,75.8,70.7,65.1,94,69,37,30.06,29.91,15,2,15,0.00
2012-7-18,98.4,83.3,73.8,76.2,70.6,64.0,94,69,38,30.09,29.97,14,2,14,0.00
2012-7-19,105.1,85.6,70.0,76.0,68.6,61.5,96,63,28,30.18,30.03,15,3,15,0.00
2012-7-20,113.0,89.4,71.6,73.1,66.9,60.6,90,53,24,30.15,29.97,12,2,12,0.00
2012-7-21,109.4,89.3,73.6,73.0,64.7,56.5,88,49,24,30.09,29.91,11,2,11,0.00
2012-7-22,107.8,83.3,74.5,74.2,64.9,58.9,78,56,28,30.09,29.97,15,3,15,0.00
2012-7-23,102.4,85.1,72.4,73.6,67.0,59.5,89,59,29,30.15,30.00,18,4,18,0.00
2012-7-24,101.7,84.9,71.9,74.8,67.5,59.3,92,60,33,30.15,29.94,15,4,15,0.00
2012-7-25,101.5,85.9,72.6,72.5,67.0,60.4,86,57,34,30.03,29.85,18,4,18,0.00
2012-7-26,101.7,85.2,72.6,72.4,67.7,61.5,86,59,35,30.00,29.85,18,4,18,0.00
2012-7-27,102.9,86.2,71.7,74.7,68.3,60.3,90,59,31,30.09,29.97,12,4,12,0.00
2012-7-28,108.7,87.5,69.2,73.2,61.8,45.1,91,49,14,30.18,30.03,10,2,10,0.00
2012-7-29,108.3,88.8,70.4,72.0,62.7,55.8,83,46,22,30.15,29.97,12,2,12,0.00
2012-7-30,108.7,88.9,70.8,69.8,63.5,57.1,81,47,24,30.09,29.94,15,2,15,0.00
2012-7-31,110.7,90.8,72.0,71.9,64.5,57.6,80,46,24,30.06,29.91,10,3,11,0.00
2012-8-1,110.7,84.7,71.7,70.1,64.4,50.2,78,54,16,30.03,29.88,13,3,13,0.00
2012-8-2,109.8,90.0,70.3,68.8,60.8,54.9,71,41,18,29.97,29.82,13,4,13,0.00
2012-8-3,106.0,88.0,71.9,70.3,63.0,57.3,77,47,25,29.97,29.82,15,4,15,0.00
2012-8-4,103.6,87.1,71.0,72.8,65.7,59.6,89,53,27,30.06,29.91,13,4,14,0.00
2012-8-5,107.6,86.9,70.3,74.9,65.9,57.8,90,54,25,30.18,30.03,12,3,12,0.00
2012-8-6,105.6,86.8,71.2,71.3,63.7,54.8,85,51,28,30.15,29.97,13,2,229,0.00
2012-8-7,109.6,89.3,70.8,72.5,63.8,56.8,80,47,25,30.03,29.91,12,2,174,0.00
2012-8-8,108.1,87.9,72.0,70.2,64.8,58.0,79,50,25,30.06,29.91,20,2,20,0.00
2012-8-9,110.5,88.8,73.6,71.7,66.0,58.9,82,51,25,30.03,29.85,13,1,13,20.47
2012-8-10,109.9,88.5,71.5,71.9,63.9,51.3,82,49,19,30.00,29.85,12,2,15,0.00
2012-8-11,110.7,88.9,68.7,68.4,61.8,53.3,80,45,23,30.00,29.85,58,1,58,0.00
2012-8-12,109.0,90.1,74.0,69.0,63.0,57.4,68,43,25,30.00,29.88,12,3,12,0.00
2012-8-13,112.5,88.1,76.7,71.0,64.7,56.9,72,49,23,30.06,29.91,58,3,58,0.00
2012-8-14,107.4,89.5,72.6,73.8,65.3,56.2,86,50,24,30.03,29.85,58,3,58,0.00
2012-8-15,101.7,84.7,73.5,71.0,62.1,52.2,86,50,24,29.97,29.85,19,4,19,0.00
2012-8-16,102.4,86.3,71.2,69.1,63.6,58.3,88,51,26,30.06,29.91,15,3,15,0.00
2012-8-17,104.3,87.1,73.5,72.6,64.5,56.8,87,52,26,30.06,29.85,18,3,18,0.00
2012-8-18,92.4,79.6,69.6,71.1,66.8,63.9,93,66,46,30.00,29.85,18,3,18,0.29
2012-8-19,95.4,77.4,66.9,72.1,66.1,59.3,95,72,37,30.03,29.91,13,2,13,0.04
2012-8-20,100.9,82.2,65.8,69.7,61.1,52.6,95,56,26,30.06,29.88,13,2,13,0.00
2012-8-21,96.3,77.1,67.6,67.1,59.1,53.7,81,56,31,30.09,29.97,58,3,58,0.00
2012-8-22,96.3,76.2,66.4,71.7,62.0,55.2,85,65,33,30.12,29.97,11,2,11,0.00
2012-8-23,101.3,82.4,68.3,69.6,61.6,54.1,92,55,27,30.09,29.91,11,2,11,0.00
2012-8-24,100.4,83.3,69.9,71.7,64.7,57.1,93,59,28,30.00,29.82,18,3,18,0.00
2012-8-25,97.6,83.6,72.4,68.8,64.6,58.7,83,56,30,29.94,29.85,20,5,20,0.00
2012-8-26,100.1,83.3,74.0,71.1,67.3,61.6,86,62,32,30.09,29.91,15,4,15,0.00
2012-8-27,100.9,82.9,72.4,71.4,64.8,56.7,85,58,29,30.12,29.97,13,2,13,0.00
2012-8-28,100.6,82.8,69.7,69.4,65.1,59.9,91,59,31,30.00,29.85,19,4,19,0.00
2012-8-29,97.8,84.9,74.5,67.9,59.6,50.2,74,46,26,29.94,29.79,23,5,23,0.00
2012-8-30,102.5,85.4,71.0,63.4,55.1,48.0,55,37,24,29.88,29.74,17,5,18,0.00
2012-8-31,103.2,85.0,67.6,68.7,61.2,55.8,78,48,27,30.00,29.85,12,2,15,0.00
2012-9-1,102.7,81.0,72.6,72.1,67.9,59.0,89,68,28,30.12,29.97,16,3,16,0.00
2012-9-2,101.5,85.3,70.8,69.8,63.6,52.7,88,53,27,30.12,29.94,18,3,18,0.00
2012-9-3,103.9,86.3,70.6,68.7,61.6,52.5,86,49,22,30.09,29.85,19,5,19,0.00
2012-9-4,105.6,87.6,72.2,69.6,63.4,51.2,86,49,22,30.00,29.85,15,3,15,0.00
2012-9-5,107.0,87.7,69.9,70.1,61.9,48.7,90,48,20,29.97,29.79,13,3,13,0.00
2012-9-6,105.6,87.4,70.6,68.4,61.3,54.2,83,46,24,30.00,29.85,11,2,11,0.00
2012-9-7,108.4,89.1,71.5,67.8,59.0,50.1,77,41,17,29.97,29.79,12,2,12,0.00
2012-9-8,87.6,77.4,68.7,57.9,49.1,36.0,63,38,22,30.15,29.88,20,6,20,0.00
2012-9-9,96.9,75.9,55.9,50.5,21.7,-20.6,66,25,2,30.21,30.06,12,2,12,0.00
2012-9-10,99.2,76.2,54.3,51.5,25.8,-12.7,54,26,2,30.18,29.97,13,2,13,20.80
2012-9-11,96.3,78.5,59.3,61.1,53.4,44.3,88,46,22,30.12,30.00,13,3,13,0.00
2012-9-12,100.2,82.3,69.4,69.0,64.5,50.1,90,59,28,30.09,29.91,17,4,17,0.00
2012-9-13,91.5,75.0,66.5,71.6,67.3,61.3,96,80,40,30.18,30.03,17,3,17,6.90
2012-9-14,70.1,65.2,62.6,66.1,61.5,58.1,96,88,71,30.30,30.18,10,3,10,0.00
2012-9-15,87.6,70.3,60.7,61.9,58.6,56.3,91,68,41,30.27,30.09,8,3,8,0.00
2012-9-16,69.9,64.4,62.1,64.3,62.1,57.3,96,92,65,30.18,29.97,7,1,7,0.92
2012-9-17,86.2,70.8,62.1,70.0,61.0,54.6,97,75,40,30.03,29.82,7,1,7,0.00
2012-9-18,85.3,71.8,61.2,66.3,59.4,53.1,96,68,39,30.12,29.91,23,3,23,0.00
2012-9-19,91.7,72.5,55.9,63.6,54.6,47.3,95,60,29,30.21,30.03,8,1,8,0.00
2012-9-20,94.0,74.5,60.2,67.6,57.3,49.2,94,60,29,30.15,29.97,10,2,10,0.00
2012-9-21,95.6,76.3,57.5,60.5,51.8,24.2,92,49,16,30.06,29.91,8,2,8,0.00
2012-9-22,95.3,75.3,57.5,60.9,55.4,51.5,92,55,27,30.18,30.00,10,1,10,0.00
2012-9-23,95.8,73.0,60.3,64.6,58.1,0.0,93,64,29,30.24,30.09,11,1,11,0.00
2012-9-24,93.1,78.0,64.4,69.8,61.2,54.5,94,60,31,30.21,29.97,18,2,18,0.00
2012-9-25,90.8,78.2,68.3,66.8,61.5,52.6,89,60,34,30.06,29.91,24,4,24,0.00
2012-9-26,92.1,78.4,69.7,68.0,62.4,54.6,88,61,35,30.06,29.91,18,3,18,0.00
2012-9-27,91.9,76.1,65.3,70.5,63.9,0.0,95,69,40,30.15,29.97,11,2,11,0.00
2012-9-28,89.6,74.9,67.2,72.0,66.5,63.9,93,77,46,30.09,29.94,14,2,14,0.08
2012-9-29,84.4,69.6,64.8,74.9,67.0,62.3,96,92,67,30.00,29.74,18,4,18,1.16
2012-9-30,77.5,67.2,59.6,63.9,60.6,57.5,95,80,55,29.94,29.85,21,6,21,0.00
2012-10-1,85.3,63.4,57.3,61.7,55.5,43.8,97,80,31,29.97,29.85,15,2,15,0.00
2012-10-2,82.0,66.8,56.3,55.2,51.0,45.1,86,61,34,30.09,29.94,18,2,18,0.00
2012-10-3,86.4,68.5,52.7,57.0,52.6,50.1,96,63,32,30.06,29.97,12,2,12,0.00
2012-10-4,91.7,77.2,66.4,68.3,64.4,56.4,91,68,40,30.15,30.03,18,4,18,1.24
2012-10-5,89.6,77.0,67.1,68.2,62.2,55.2,94,64,35,30.15,29.97,17,3,17,0.00
2012-10-6,69.6,59.8,51.1,63.8,52.3,44.8,86,76,66,30.24,30.03,16,4,16,0.00
2012-10-7,56.8,52.3,48.8,44.8,37.0,33.2,79,56,48,30.30,30.18,14,5,14,0.00
2012-10-8,74.0,57.7,46.7,48.2,40.9,32.6,71,55,39,30.30,30.09,12,3,12,0.00
2012-10-9,82.5,67.0,57.0,61.7,55.8,47.6,90,68,47,30.12,29.91,20,4,20,0.00
2012-10-10,91.7,75.0,63.5,71.8,65.6,60.2,96,75,40,30.18,30.00,11,2,11,0.00
2012-10-11,88.5,73.2,67.6,72.3,67.5,65.5,94,84,49,30.18,30.06,17,3,17,0.00
2012-10-12,89.2,75.8,66.5,70.1,64.6,58.4,95,71,40,30.21,30.09,15,3,15,0.00
2012-10-13,81.8,74.9,71.3,73.4,69.0,66.5,89,82,65,30.12,29.91,16,4,16,0.00
2012-10-14,90.1,73.7,61.0,69.7,57.6,44.2,97,63,28,30.15,29.97,17,3,17,1.42
2012-10-15,80.9,65.7,54.5,57.1,51.4,44.5,90,63,36,30.18,30.03,6,1,6,1.42
2012-10-16,70.3,64.7,60.5,64.6,59.4,53.4,94,83,73,30.06,29.82,11,2,11,1.42
2012-10-17,94.7,74.4,63.7,65.2,59.2,48.0,94,64,28,29.85,29.65,15,3,15,1.42
2012-10-18,81.6,66.8,50.0,48.4,27.9,-18.6,68,33,2,30.06,29.82,14,3,14,1.42
2012-10-19,86.6,62.0,42.2,49.1,33.9,-14.5,90,51,2,30.12,29.94,7,1,7,0.00
2012-10-20,86.4,69.1,51.1,68.3,56.5,39.5,85,65,48,29.97,29.82,19,3,19,0.00
2012-10-21,90.1,77.9,70.1,68.7,65.0,57.6,88,67,40,29.97,29.85,17,4,17,0.00
2012-10-22,90.7,76.1,67.4,68.3,65.0,58.0,95,72,38,30.03,29.91,23,4,23,0.00
2012-10-23,83.9,73.8,69.9,68.4,65.8,63.3,87,77,55,30.03,29.91,14,3,14,0.00
2012-10-24,86.8,74.0,66.0,66.4,61.5,56.2,92,68,39,30.03,29.85,20,4,20,0.00
2012-10-25,89.8,73.8,59.5,66.9,59.2,42.3,90,63,39,30.09,29.85,18,4,18,0.00
2012-10-26,59.5,53.2,48.5,42.2,36.3,29.2,73,53,46,30.33,30.09,18,7,18,0.00
2012-10-27,65.8,51.5,42.4,32.5,27.9,25.6,52,41,25,30.36,30.18,15,4,15,0.00
2012-10-28,69.2,51.8,35.3,34.4,23.4,-16.2,71,38,4,30.33,30.18,11,1,11,0.00
2012-10-29,73.3,52.6,34.3,43.2,33.3,29.1,90,54,23,30.33,30.15,8,1,8,0.00
2012-10-30,80.9,59.2,40.1,50.8,42.7,30.0,89,58,34,30.18,29.97,12,2,12,31.28
2012-10-31,88.7,64.7,47.9,59.3,49.8,42.7,95,64,29,30.12,29.97,6,1,6,0.00
2012-11-1,88.7,60.6,47.9,59.9,49.0,43.1,95,71,25,30.15,29.97,12,1,12,0.00
2012-11-2,86.2,67.5,53.1,63.4,53.6,46.2,95,65,32,30.09,29.94,13,2,13,0.00
2012-11-3,88.3,69.7,60.3,66.3,58.2,51.8,96,71,33,30.15,30.00,11,2,11,0.00
2012-11-4,83.6,65.5,54.0,57.0,52.8,47.0,96,67,38,30.21,30.06,10,2,10,0.00
2012-11-5,88.2,65.9,50.4,59.2,49.6,32.3,96,61,34,30.15,29.97,13,2,13,0.00
2012-11-6,84.3,60.7,41.9,46.3,39.9,31.6,84,51,24,30.24,30.09,7,1,7,0.00
2012-11-7,84.3,61.9,44.0,48.7,43.9,39.1,92,57,28,30.27,30.06,10,2,10,0.00
2012-11-8,83.9,67.6,53.2,59.5,50.3,42.6,94,58,30,30.18,30.00,23,3,23,0.00
2012-11-9,82.9,72.2,64.1,60.9,56.8,48.8,87,62,37,30.12,29.97,27,6,27,0.00
2012-11-10,80.7,66.7,60.5,61.3,59.2,52.0,94,79,41,30.06,29.85,25,5,25,0.00
2012-11-11,83.2,69.6,55.5,61.5,50.0,20.3,78,53,24,30.24,29.85,24,5,24,0.00
2012-11-12,63.7,48.6,35.3,37.1,22.1,-7.1,66,39,8,30.53,30.21,13,4,13,0.00
2012-11-13,57.9,44.5,31.6,35.0,24.9,19.8,78,49,29,30.53,30.33,13,1,13,0.00
2012-11-14,69.0,45.7,35.9,35.2,26.7,23.1,73,49,24,30.47,30.27,6,1,6,0.00
2012-11-15,65.1,52.1,36.6,39.4,33.8,24.9,79,52,36,30.36,30.21,8,1,8,0.00
2012-11-16,71.2,54.3,39.6,40.9,32.7,21.5,84,47,27,30.41,30.27,11,2,11,0.00
2012-11-17,71.2,50.4,32.3,38.2,29.5,8.3,88,50,9,30.41,30.27,10,1,10,0.00
2012-11-18,72.9,57.4,42.1,48.5,40.6,32.0,81,55,37,30.33,30.18,14,3,14,0.00
2012-11-19,72.8,60.6,51.3,54.1,51.3,44.5,92,73,50,30.30,30.15,14,3,14,0.00
2012-11-20,85.7,63.9,47.4,57.6,50.4,40.8,97,66,29,30.24,30.12,6,1,6,0.00
2012-11-21,82.9,64.8,49.3,58.0,49.5,44.3,94,62,31,30.33,30.15,10,2,10,0.00
2012-11-22,77.4,64.9,52.0,57.8,51.5,46.3,96,63,43,30.21,30.06,13,3,20,0.00
2012-11-23,64.8,58.3,50.9,54.7,41.6,19.8,97,59,27,30.44,30.15,18,4,18,0.00
2012-11-24,69.4,51.6,37.3,29.1,14.7,-16.2,44,29,3,30.44,30.18,6,2,6,0.00
2012-11-25,77.9,59.2,41.5,55.5,40.0,19.9,83,50,38,30.18,29.91,17,4,17,0.00
2012-11-26,88.9,66.5,54.7,61.6,52.2,37.9,96,65,31,30.30,29.91,16,3,16,0.41
2012-11-27,64.9,50.5,37.6,37.7,32.4,26.9,88,52,34,30.44,30.24,15,5,15,0.00
2012-11-28,69.6,48.3,33.2,44.7,37.5,31.2,96,70,40,30.47,30.27,10,2,10,0.00
2012-11-29,71.7,54.0,37.1,50.9,44.5,35.6,97,73,46,30.33,30.15,13,2,13,0.00
2012-11-30,78.8,64.1,51.8,59.8,54.3,48.2,95,73,45,30.21,30.03,13,3,15,0.00
2012-12-1,79.8,65.9,56.6,63.0,60.6,53.4,96,84,47,30.18,30.03,23,3,23,0.00
2012-12-2,81.1,69.0,59.8,63.9,60.5,56.6,92,76,48,30.21,30.06,19,4,19,0.00
2012-12-3,75.9,64.4,58.6,62.7,59.2,56.1,96,84,62,30.12,29.97,15,3,15,0.00
2012-12-4,74.9,61.5,47.2,59.4,48.2,36.7,97,66,33,30.33,30.06,15,3,15,0.00
2012-12-5,74.3,53.6,38.0,40.8,34.8,27.9,86,53,27,30.33,30.06,8,2,8,0.00
2012-12-6,77.2,58.3,40.8,52.0,45.3,34.2,96,66,35,30.09,29.82,15,2,15,0.00
2012-12-7,75.6,60.8,51.8,59.9,54.5,45.0,95,81,51,29.94,29.79,10,2,10,0.00
2012-12-8,79.1,64.9,53.1,66.1,57.9,51.7,97,80,49,29.97,29.79,11,2,11,0.00
2012-12-9,79.5,65.2,50.6,65.4,54.3,33.6,95,70,45,30.03,29.79,23,4,23,0.00
2012-12-10,50.9,40.8,30.5,33.0,14.0,-10.1,51,35,8,30.21,30.00,26,7,26,0.00
2012-12-11,59.1,38.5,22.6,24.2,10.0,-12.9,78,40,5,30.24,30.09,8,2,8,0.00
2012-12-12,65.3,41.6,22.0,27.4,13.1,-14.2,80,42,4,30.33,30.18,11,2,11,0.00
2012-12-13,35.0,33.2,31.8,25.3,24.1,21.1,76,69,60,30.30,30.27,4,3,4,0.00
2012-12-14,66.0,57.5,52.5,62.2,49.4,33.0,95,76,42,30.21,29.85,11,4,11,0.41
2012-12-15,74.3,62.0,55.4,62.6,47.9,34.8,97,65,32,30.00,29.85,11,1,11,0.41
2012-12-16,68.7,58.4,45.1,47.9,40.2,28.7,69,52,35,29.91,29.79,13,2,13,0.41
2012-12-17,73.5,54.8,39.1,34.6,17.7,-21.7,64,35,2,30.00,29.85,17,3,17,0.41
2012-12-18,85.2,57.9,32.5,53.5,25.7,-20.2,86,47,2,29.94,29.76,20,2,20,31.73
2012-12-19,80.2,69.3,58.2,61.3,55.4,-13.5,93,66,4,29.94,29.65,35,6,35,0.41
2012-12-20,63.3,44.9,27.9,15.5,-3.1,-16.7,43,17,4,30.47,29.94,34,9,34,0.41
2012-12-21,66.4,37.1,21.9,25.7,5.9,-14.2,60,38,4,30.53,30.33,13,1,13,0.04
2012-12-22,65.1,48.9,29.0,46.4,31.1,-0.2,76,51,21,30.36,30.09,27,4,27,0.00
2012-12-23,75.9,60.8,51.7,58.0,50.4,44.7,93,71,39,30.12,29.88,9,1,9,0.00
2012-12-24,70.3,52.5,34.8,47.2,27.7,-16.1,97,52,3,30.06,29.76,9,1,9,0.00
2012-12-25,63.2,46.7,28.8,46.5,27.0,12.5,74,47,35,30.21,29.59,34,9,34,0.00
2012-12-26,44.2,31.2,23.8,20.1,13.4,9.4,54,48,37,30.30,30.12,13,4,13,0.00
2012-12-27,45.5,35.6,23.8,40.1,26.7,11.3,96,71,48,30.12,29.85,10,3,10,0.00
2012-12-28,55.9,43.1,29.7,43.7,33.8,21.1,98,72,46,30.24,29.82,23,6,23,0.00
2012-12-29,55.9,38.9,28.6,25.6,17.8,-2.2,76,46,12,30.47,30.24,10,2,10,0.00
2012-12-30,46.5,36.7,25.6,36.9,21.8,14.5,75,55,39,30.44,30.15,12,3,12,0.00
2012-12-31,54.3,49.1,43.1,53.5,47.7,35.8,98,95,68,30.21,29.97,17,2,18,0.13
2013-1-1,53.2,48.7,36.0,52.7,44.7,26.0,98,87,55,30.30,30.00,15,3,15,0.08